loading
|

MIDAS 4 DEB, 2009

Orbit data source: Space-Track

MIDAS 4 DEB, 2009 is space debris originally from a launch on Sat, 21 Oct 1961 UTC launched from the Air Force Western Test Range (AFWTR). Debris objects in space refer to the collection of defunct objects orbiting the Earth. Examples of debris include non-operational satellites, rocket bodies, and fragments generated from explosions, collisions, or faulty payload assembly.

Loading next visibility...
Next conjunction unknown
Loading greatness...
MIDAS 4 DEB details
Identifier
2009, 1961-028E
Orbit
Active
Last TLE update1 day ago
Origin
Flag of USUSAF SSD (US)
ManufacturerUnknown
MissionSpacecraft
Bus & MotorUnknown bus, Unknown motor
Mass~10 kg wet, ~10 kg dry
Launch date (UTC)
1961-10-21 (63 years ago)
Launch vehicleUnknown
Launch site
Air Force Western Test Range (AFWTR)
Object type
Payload
Rocket body
Debris
Shape & HBRUnknown
Radar Cross SectionMedium (>0.1 m² and <1 m²)

Expand to show TLE details & history

TLE from 1 day ago
0 MIDAS 4 DEB
1 02009U 61028E   24287.46349205 -.00000002  00000-0  67697-3 0  9995
2 02009  95.8414 101.2857 0122632 137.5395 223.5021  8.68991256336862
Epoch: 2024-10-13T11:07Z
Definitive object data (Epoch: 2024-10-13T11:07:25.713Z)
Latitude0.00001°
Longitude-88.07606°
Altitude3,707.295 km
Speed6.259 km/s
True Right ascension06h 45m 08s
True Declination0° 00' 00"
Sunlit
Object was in daylight at TLE epoch
Predictive object data (real-time)
Latitude25.97159°
Longitude95.02163°
Altitude3,501.083 km
Speed6.391 km/s
Apparent Right ascension20h 10m 42s
Apparent Declination1° 05' 48"
Sunlit
Object is in daylight
Predictive observer data (real-time)
Local Sidereal Time10:29:30
Azimuth46.396° ENE
Elevation-38.182°
Doppler factor1
Orbital elements
Apogee3,735.93 km
Perigee3,490.873 km
Semi-major axis9,991.539 km
Eccentricity0.0122632
Inclination95.8414°
RAAN101.2857°
Arg. of periapsis137.5395°
True anomaly222.54543°
Mean anomaly223.5021°
Eccentric anomaly223.0227°
Mean motion2.17317 °/min
BSTAR0.00067697
Period165.66 mins
No data available

MIDAS 4 DEB Visibility forecast

Observer location: 39.9160978°, -105.1181434

Span
Click to sort rows by Start time (UTC) header in descending order
Start Az.
Max El. time (UTC)
Max El. Az.
Max El.
End time (UTC)
End Az.
18 mins2024-10-14 21:10:14.102Z37.027° NE2024-10-14 21:19:14.102Z69.614° E14.976°2024-10-14 21:28:14.102Z102.165° ESE
34 mins2024-10-14 23:50:14.102Z11.6° NNE2024-10-15 00:06:14.102Z89.305° E44.26°2024-10-15 00:24:14.102Z185.241° SSW
27 mins2024-10-15 02:34:14.102Z357.635° N2024-10-15 02:47:14.102Z305.581° NW28.017°2024-10-15 03:01:14.102Z251.599° W
9 mins2024-10-15 07:46:14.102Z45.199° ENE2024-10-15 07:50:14.102Z31.326° NE12.221°2024-10-15 07:55:14.102Z13.88° NNE
32 mins2024-10-15 10:10:14.102Z131.254° SE2024-10-15 10:26:14.102Z65.672° ENE37.69°2024-10-15 10:42:14.102Z357.419° N
34 mins2024-10-15 12:52:14.102Z197.702° SSW2024-10-15 13:09:14.102Z271.832° WNW37.915°2024-10-15 13:26:14.102Z344.337° N